Regional Weather Roundup
Issued by NWS

Home | Current Version | Previous Version | Text Only | Print | Product List | Glossary Off
Versions: 1 2 3 4 5 6 7 8 9 10 11 12 13 14 15 16 17 18 19 20 21 22 23 24 25 26 27 28 29 30 31 32 33 34 35 36 37 38 39 40 41 42 43 44 45 46 47 48 49 50

000
ASUS44 KMEG 202210
RWRTN
TENNESSEE HOURLY STATE WEATHER ROUNDUP
NATIONAL WEATHER SERVICE MEMPHIS TN
400 PM CST TUE FEB 20 2018

TNZ002-004-019-021-049-052-054-088>092-202300-
WEST TENNESSEE

CITY           SKY/WX    TMP DP  RH WIND       PRES   REMARKS
MEMPHIS INTL   PTSUNNY   76  63  64 S17       30.06F
NWS MEMPHIS      N/A     76 N/A N/A MISG        N/A
JACKSON        CLOUDY    76  62  62 S18G29    30.10S
DYERSBURG      PTSUNNY   75  63  66 S14G20    30.07S
SOMERVILLE     PTSUNNY   75  63  64 SE13G22   30.08S
COVINGTON      PTSUNNY   75  64  69 S9G20     30.07S
UNION CITY     CLOUDY    75  61  60 S16       30.06S
BOLIVAR        CLOUDY    73  63  68 SE14G23   30.10F
PARIS          CLOUDY    75  61  60 S14G21    30.09S
HUNTINGDON     CLOUDY    75  63  64 S15G24    30.10R
LEXINGTON      CLOUDY    75  61  60 S12G20    30.13F
SELMER         CLOUDY    75  61  60 S14G20    30.13F
SAVANNAH       CLOUDY    73  63  68 S9        30.15S
$$

TNZ008-025-027-028-033-062-065-066-202300-
NORTH MIDDLE TENNESSEE

CITY           SKY/WX    TMP DP  RH WIND       PRES   REMARKS
NASHVILLE      PTSUNNY   78  57  48 S14G23    30.17S
PORTLAND       PTSUNNY   77  57  50 S14G21    30.16S
CLARKSVILLE    CLOUDY    74  57  55 S20G31    30.13S
SMYRNA         CLOUDY    77  59  53 S9G17     30.19R
COOKEVILLE     CLOUDY    73  59  60 S12G17    30.22S
GALLATIN       CLOUDY    77  57  50 S12G21    30.19S
CROSSVILLE     CLOUDY    67  58  72 S8        30.29R
$$

TNZ061-075-076-078-094-096-097-202300-
SOUTH MIDDLE TENNESSEE

CITY           SKY/WX    TMP DP  RH WIND       PRES   REMARKS
FAYETTEVILLE   CLOUDY    75  63  64 S12G20    30.20S
TULLAHOMA      CLOUDY    73  61  64 S12G18    30.21S
WINCHESTER     PTSUNNY   73  61  64 SE14      30.23S
MCMINNVILLE    CLOUDY    73  59  60 S10G18    30.22S
COLUMBIA       PTSUNNY   77  59  53 S9G18     30.15S
SHELBYVILLE    CLOUDY    73  61  64 S16G23    30.20R
$$

TNZ017-018-042-046-047-202300-
NORTHEAST TENNESSEE

CITY           SKY/WX    TMP DP  RH WIND       PRES   REMARKS
TRI CITIES     FAIR      78  52  40 SW7       30.27S
ELIZABETHTON   FAIR      77  50  38 S12       30.28R
$$

TNZ012-013-036-069-073-074-202300-
CENTRAL EAST TENNESSEE

CITY           SKY/WX    TMP DP  RH WIND       PRES   REMARKS
KNOXVILLE      PTSUNNY   74  54  49 S16G28    30.26R
OAK RIDGE      CLOUDY    75  57  53 SW6G16    30.28R
DOWNTOWN KNOXV PTSUNNY   77  54  44 SW12G22   30.27R
GATLINBURG     SUNNY     79  50  36 SW15      30.26R
MORRISTOWN     SUNNY     77  54  44 W12       30.27R
JACKSBORO      CLOUDY    75  57  53 SW13      30.30R
$$

TNZ083-085-099-202300-
SOUTHEAST TENNESSEE

CITY           SKY/WX    TMP DP  RH WIND       PRES   REMARKS
CHATTANOOGA    PTSUNNY   74  60  61 SE9       30.26S
$$

SKY/WX REPORTED AS FAIR MEANS FEW OR NO CLOUDS BELOW
12 THOUSAND FEET.





USA.gov is the U.S. government's official web portal to all federal, state and local government web resources and services.